Name,Date (UTC),Temp (C),RGauge (mm),SWE (mm),SD (cm)
Squamish River Upper,2020-09-21 00:00:00,9.2,254,,11
Squamish River Upper,2020-09-21 01:00:00,8.5,255,,11
Squamish River Upper,2020-09-21 02:00:00,8.1,255,,11
Squamish River Upper,2020-09-21 03:00:00,7.6,255,,11
Squamish River Upper,2020-09-21 04:00:00,7.6,255,,11
Squamish River Upper,2020-09-21 05:00:00,7.5,255,,11
Squamish River Upper,2020-09-21 06:00:00,7.6,255,,11
Squamish River Upper,2020-09-21 07:00:00,7.4,254,,11
Squamish River Upper,2020-09-21 08:00:00,7.2,254,,11
Squamish River Upper,2020-09-21 09:00:00,7,255,,11
Squamish River Upper,2020-09-21 10:00:00,6.5,254,,11
Squamish River Upper,2020-09-21 11:00:00,6,254,,11
Squamish River Upper,2020-09-21 12:00:00,5.8,254,,11
Squamish River Upper,2020-09-21 13:00:00,6.2,254,,12
Squamish River Upper,2020-09-21 14:00:00,5.5,254,,10
Squamish River Upper,2020-09-21 15:00:00,5.7,254,,10
Squamish River Upper,2020-09-21 16:00:00,7.7,254,,11
Squamish River Upper,2020-09-21 17:00:00,8.1,254,,11
Squamish River Upper,2020-09-21 18:00:00,8.9,254,,10
Squamish River Upper,2020-09-21 19:00:00,10.5,254,,10
Squamish River Upper,2020-09-21 20:00:00,10.7,254,,11
Squamish River Upper,2020-09-21 21:00:00,10.6,254,,11
Squamish River Upper,2020-09-21 22:00:00,9.8,254,,11
Squamish River Upper,2020-09-21 23:00:00,9.8,254,,11
Squamish River Upper,2020-09-22 00:00:00,9.6,254,,11
Squamish River Upper,2020-09-22 01:00:00,9,254,,11
Squamish River Upper,2020-09-22 02:00:00,8.7,255,,11
Squamish River Upper,2020-09-22 03:00:00,8.1,254,,11
Squamish River Upper,2020-09-22 04:00:00,8,255,,11
Squamish River Upper,2020-09-22 05:00:00,7.7,255,,11
Squamish River Upper,2020-09-22 06:00:00,7.8,255,,11
Squamish River Upper,2020-09-22 07:00:00,7.7,255,,11
Squamish River Upper,2020-09-22 08:00:00,7.6,255,,11
Squamish River Upper,2020-09-22 09:00:00,7.6,255,,11
Squamish River Upper,2020-09-22 10:00:00,7.6,255,,12
Squamish River Upper,2020-09-22 11:00:00,7.5,255,,13
Squamish River Upper,2020-09-22 12:00:00,7.4,255,,12
Squamish River Upper,2020-09-22 13:00:00,7.7,255,,12
Squamish River Upper,2020-09-22 14:00:00,7.6,255,,12
Squamish River Upper,2020-09-22 15:00:00,7.6,255,,12
Squamish River Upper,2020-09-22 16:00:00,7.7,255,,13
Squamish River Upper,2020-09-22 17:00:00,8.2,254,,13
Squamish River Upper,2020-09-22 18:00:00,8.3,254,,11
Squamish River Upper,2020-09-22 19:00:00,8.2,254,,12
Squamish River Upper,2020-09-22 20:00:00,7.9,254,,12
Squamish River Upper,2020-09-22 21:00:00,8.1,254,,12
Squamish River Upper,2020-09-22 22:00:00,8.4,254,,11
Squamish River Upper,2020-09-22 23:00:00,7.9,254,,11
Squamish River Upper,2020-09-23 00:00:00,7.8,254,,11
Squamish River Upper,2020-09-23 01:00:00,7.6,254,,11
Squamish River Upper,2020-09-23 02:00:00,7.3,254,,11
Squamish River Upper,2020-09-23 03:00:00,6.6,254,,11
Squamish River Upper,2020-09-23 04:00:00,6.5,254,,11
Squamish River Upper,2020-09-23 05:00:00,6.3,254,,12
Squamish River Upper,2020-09-23 06:00:00,6.1,254,,13
Squamish River Upper,2020-09-23 07:00:00,6.4,255,,11
Squamish River Upper,2020-09-23 08:00:00,6.4,256,,9
Squamish River Upper,2020-09-23 09:00:00,6.4,257,,8
Squamish River Upper,2020-09-23 10:00:00,6.4,258,,11
Squamish River Upper,2020-09-23 11:00:00,6.6,259,,11
Squamish River Upper,2020-09-23 12:00:00,6.5,263,,10
Squamish River Upper,2020-09-23 13:00:00,6,267,,10
Squamish River Upper,2020-09-23 16:00:00,5.2,276,,9
Squamish River Upper,2020-09-23 17:00:00,5.6,277,,8
Squamish River Upper,2020-09-23 18:00:00,6.2,279,,10
Squamish River Upper,2020-09-23 19:00:00,6.5,280,,11
Squamish River Upper,2020-09-23 20:00:00,6.5,281,,12
Squamish River Upper,2020-09-23 21:00:00,6.9,283,,13
Squamish River Upper,2020-09-23 22:00:00,7.3,285,,9
Squamish River Upper,2020-09-23 23:00:00,7.7,288,,15
Squamish River Upper,2020-09-24 00:00:00,7.6,290,,15
Squamish River Upper,2020-09-24 01:00:00,7.6,290,,15
Squamish River Upper,2020-09-24 02:00:00,7.3,295,,10
Squamish River Upper,2020-09-24 03:00:00,6.2,298,,12
Squamish River Upper,2020-09-24 04:00:00,5.8,299,,12
Squamish River Upper,2020-09-24 05:00:00,5.9,300,,12
Squamish River Upper,2020-09-24 06:00:00,5.8,300,,13
Squamish River Upper,2020-09-24 07:00:00,4.9,301,,13
Squamish River Upper,2020-09-24 08:00:00,5.1,301,,13
Squamish River Upper,2020-09-24 09:00:00,5.1,301,,13
Squamish River Upper,2020-09-24 10:00:00,4.8,303,,12
Squamish River Upper,2020-09-24 11:00:00,5.1,304,,12
Squamish River Upper,2020-09-24 12:00:00,4.1,305,,13
Squamish River Upper,2020-09-24 13:00:00,3.6,308,,12
Squamish River Upper,2020-09-24 14:00:00,3.1,310,,13
Squamish River Upper,2020-09-24 15:00:00,3.7,310,,13
Squamish River Upper,2020-09-24 16:00:00,4,312,,12
Squamish River Upper,2020-09-24 17:00:00,4,314,,11
Squamish River Upper,2020-09-24 18:00:00,4.3,314,,14
Squamish River Upper,2020-09-24 19:00:00,4.9,315,,13
Squamish River Upper,2020-09-24 20:00:00,5,315,,12
Squamish River Upper,2020-09-24 21:00:00,5.3,315,,13
Squamish River Upper,2020-09-24 22:00:00,5.6,315,,8
Squamish River Upper,2020-09-24 23:00:00,5.4,315,,14
Squamish River Upper,2020-09-25 00:00:00,5.3,315,,13
Squamish River Upper,2020-09-25 01:00:00,4.8,316,,13
Squamish River Upper,2020-09-25 02:00:00,4.5,316,,13
Squamish River Upper,2020-09-25 03:00:00,5.1,316,,13
Squamish River Upper,2020-09-25 04:00:00,5.1,317,,12
Squamish River Upper,2020-09-25 05:00:00,5.2,318,,12
Squamish River Upper,2020-09-25 06:00:00,5.3,319,,12
Squamish River Upper,2020-09-25 07:00:00,5.2,320,,12
Squamish River Upper,2020-09-25 08:00:00,5.3,322,,11
Squamish River Upper,2020-09-25 09:00:00,5.1,326,,11
Squamish River Upper,2020-09-25 10:00:00,5,330,,11
Squamish River Upper,2020-09-25 11:00:00,4.9,333,,10
Squamish River Upper,2020-09-25 12:00:00,4.8,338,,10
Squamish River Upper,2020-09-25 13:00:00,4.9,344,,11
Squamish River Upper,2020-09-25 14:00:00,4.2,348,,10
Squamish River Upper,2020-09-25 15:00:00,4.1,352,,10
Squamish River Upper,2020-09-25 16:00:00,4.4,354,,11
Squamish River Upper,2020-09-25 17:00:00,4.8,355,,11
Squamish River Upper,2020-09-25 18:00:00,5.5,355,,11
Squamish River Upper,2020-09-25 19:00:00,5.6,355,,13
Squamish River Upper,2020-09-25 20:00:00,5.8,355,,12
Squamish River Upper,2020-09-25 21:00:00,6,356,,12
Squamish River Upper,2020-09-25 22:00:00,3.9,357,,12
Squamish River Upper,2020-09-25 23:00:00,4,357,,11
Squamish River Upper,2020-09-26 00:00:00,4,357,,11
Squamish River Upper,2020-09-26 01:00:00,3.9,357,,11
Squamish River Upper,2020-09-26 02:00:00,3.8,357,,12
Squamish River Upper,2020-09-26 03:00:00,2.5,358,,11
Squamish River Upper,2020-09-26 04:00:00,3,358,,11
Squamish River Upper,2020-09-26 05:00:00,2.2,361,,10
Squamish River Upper,2020-09-26 06:00:00,2.1,364,,10
Squamish River Upper,2020-09-26 07:00:00,2,364,,10
Squamish River Upper,2020-09-26 08:00:00,2.2,365,,11
Squamish River Upper,2020-09-26 09:00:00,2.8,365,,12
Squamish River Upper,2020-09-26 10:00:00,3.3,365,,12
Squamish River Upper,2020-09-26 11:00:00,2.7,365,,10
Squamish River Upper,2020-09-26 12:00:00,2.8,366,,11
Squamish River Upper,2020-09-26 13:00:00,2.8,366,,11
Squamish River Upper,2020-09-26 14:00:00,2.8,366,,11
Squamish River Upper,2020-09-26 15:00:00,2.9,366,,11
Squamish River Upper,2020-09-26 16:00:00,3.3,366,,10
Squamish River Upper,2020-09-26 17:00:00,3.5,366,,11
Squamish River Upper,2020-09-26 18:00:00,3.4,366,,11
Squamish River Upper,2020-09-26 19:00:00,3.9,366,,11
Squamish River Upper,2020-09-26 20:00:00,4.3,366,,11
Squamish River Upper,2020-09-26 21:00:00,4,366,,9
Squamish River Upper,2020-09-26 22:00:00,4,366,,12
Squamish River Upper,2020-09-26 23:00:00,3.8,367,,11
Squamish River Upper,2020-09-27 00:00:00,3.9,367,,11
Squamish River Upper,2020-09-27 01:00:00,3.9,368,,11
Squamish River Upper,2020-09-27 02:00:00,3.7,369,,12
Squamish River Upper,2020-09-27 03:00:00,3.2,369,,12
Squamish River Upper,2020-09-27 04:00:00,3.2,369,,12
Squamish River Upper,2020-09-27 05:00:00,2.5,369,,11
Squamish River Upper,2020-09-27 06:00:00,1.7,369,,11
Squamish River Upper,2020-09-27 07:00:00,2.2,369,,10
Squamish River Upper,2020-09-27 08:00:00,1.9,369,,10
Squamish River Upper,2020-09-27 09:00:00,1.3,369,,10
Squamish River Upper,2020-09-27 10:00:00,1.1,370,,
Squamish River Upper,2020-09-27 11:00:00,1.4,370,,
Squamish River Upper,2020-09-27 12:00:00,1.1,370,,
Squamish River Upper,2020-09-27 13:00:00,1.7,370,,
Squamish River Upper,2020-09-27 14:00:00,2,369,,
Squamish River Upper,2020-09-27 15:00:00,2.5,369,,
Squamish River Upper,2020-09-27 16:00:00,3.2,369,,
Squamish River Upper,2020-09-27 17:00:00,4.1,369,,
Squamish River Upper,2020-09-27 18:00:00,4.5,369,,
Squamish River Upper,2020-09-27 19:00:00,5.5,369,,11
Squamish River Upper,2020-09-27 20:00:00,6,369,,12
Squamish River Upper,2020-09-27 21:00:00,6.4,369,,9
Squamish River Upper,2020-09-27 22:00:00,7,369,,10
Squamish River Upper,2020-09-27 23:00:00,6.7,369,,10
Squamish River Upper,2020-09-28 00:00:00,6.4,369,,12
Squamish River Upper,2020-09-28 01:00:00,6.6,369,,12
Squamish River Upper,2020-09-28 02:00:00,5.9,369,,12
Squamish River Upper,2020-09-28 03:00:00,5.3,369,,12
Squamish River Upper,2020-09-28 04:00:00,5.2,369,,12
Squamish River Upper,2020-09-28 05:00:00,4.5,369,,11
Squamish River Upper,2020-09-28 06:00:00,4.2,369,,11
Squamish River Upper,2020-09-28 07:00:00,4.8,369,,10
Squamish River Upper,2020-09-28 08:00:00,5.1,369,,10
Squamish River Upper,2020-09-28 09:00:00,5.8,369,,8
Squamish River Upper,2020-09-28 10:00:00,6.4,369,,7
Squamish River Upper,2020-09-28 11:00:00,5.9,369,,7
Squamish River Upper,2020-09-28 12:00:00,6.9,369,,5
Squamish River Upper,2020-09-28 13:00:00,7.2,369,,
